Weather History for Weatherford, OK

Change the Weather History Date:

Thursday, November 8, 2012

  Actual Average (KJWG) Record (KJWG)
Temperature  
Mean Temperature 64 °F -  
Max Temperature 78 °F 62 °F 88 °F (1980)
Min Temperature 51 °F 40 °F 15 °F (1991)
Growing Degree Days 14 (Base 50)    
Moisture  
Dew Point 46 °F    
Average Humidity 52    
Maximum Humidity 62    
Minimum Humidity 36    
Precipitation  
Precipitation 0.00 in - - ()
Sea Level Pressure  
Sea Level Pressure 29.90 in    
Wind  
Wind Speed 14 mph (South)    
Max Wind Speed 23 mph    
Max Gust Speed 32 mph    
Visibility 10 miles    
Events      
Averages and records for this station are not official NWS values.
T = Trace of Precipitation, MM = Missing Value Source: NWS Daily Summary

Daily Weather History Graph

Daily Weather History Graph

Search for Another Location

Airport:

Trip Planner

Search our weather history database for the weather conditions in past years. The results will help you decide how hot, cold, wet, or windy it might be!

Date:

Astronomy

Nov. 08, 2012 Rise Set
Actual Time 7:03 AM CST 5:32 PM CST
Civil Twilight 6:37 AM CST 5:59 PM CST
Nautical Twilight 6:06 AM CST 6:29 PM CST
Astronomical Twilight 5:36 AM CST 6:59 PM CST
Moon 1:12 AM CST (11/8) 2:03 PM CST (11/8)
Length of Visible Light 11h 22m
Length of Day
10h 28m
Waning Crescent, 32% of the Moon is Illuminated
Nov 8
Waning Crescent
Nov 13
New
Nov 20
First Quarter
Nov 28
Full
Dec 6
Last Quarter

Hourly Weather History & Observations

Time (CST) Temp. Dew Point Humidity Pressure Visibility Wind Dir Wind Speed Gust Speed Precip Events Conditions
12:15 AM 53.6 °F 35.6 °F 51% 30.01 in 10.0 mi SSE 10.4 mph - N/A   Clear
12:35 AM 53.6 °F 35.6 °F 51% 30.01 in 10.0 mi SSE 10.4 mph 16.1 mph N/A   Clear
12:55 AM 53.6 °F 35.6 °F 51% 30.00 in 10.0 mi SSE 9.2 mph - N/A   Clear
1:15 AM 53.6 °F 35.6 °F 51% 30.00 in 10.0 mi SSE 11.5 mph 19.6 mph N/A   Clear
1:35 AM 53.6 °F 35.6 °F 51% 30.00 in 10.0 mi SSE 11.5 mph 17.3 mph N/A   Clear
2:15 AM 53.6 °F 35.6 °F 51% 29.99 in 10.0 mi SSE 11.5 mph 17.3 mph N/A   Clear
2:35 AM 53.6 °F 35.6 °F 51% 29.99 in 10.0 mi SSE 10.4 mph 17.3 mph N/A   Clear
2:55 AM 53.6 °F 35.6 °F 51% 29.99 in 10.0 mi SSE 11.5 mph 18.4 mph N/A   Clear
3:15 AM 51.8 °F 35.6 °F 54% 29.99 in 10.0 mi SSE 10.4 mph - N/A   Clear
3:35 AM 51.8 °F 35.6 °F 54% 29.98 in 10.0 mi SSE 10.4 mph - N/A   Clear
3:55 AM 53.6 °F 35.6 °F 51% 29.98 in 10.0 mi SSE 10.4 mph 19.6 mph N/A   Clear
4:15 AM 53.6 °F 37.4 °F 54% 29.97 in 10.0 mi SSE 12.7 mph 19.6 mph N/A   Clear
4:35 AM 51.8 °F 37.4 °F 58% 29.97 in 10.0 mi South 15.0 mph 20.7 mph N/A   Clear
4:55 AM 51.8 °F 37.4 °F 58% 29.97 in 10.0 mi SSE 10.4 mph - N/A   Clear
5:15 AM 51.8 °F 37.4 °F 58% 29.97 in 10.0 mi SSE 12.7 mph 18.4 mph N/A   Clear
5:35 AM 51.8 °F 37.4 °F 58% 29.96 in 10.0 mi SSE 12.7 mph 18.4 mph N/A   Clear
5:55 AM 51.8 °F 37.4 °F 58% 29.96 in 10.0 mi South 13.8 mph - N/A   Clear
6:15 AM 51.8 °F 37.4 °F 58% 29.95 in 10.0 mi South 16.1 mph 20.7 mph N/A   Clear
6:35 AM 51.8 °F 37.4 °F 58% 29.95 in 10.0 mi South 13.8 mph 21.9 mph N/A   Clear
7:15 AM 51.8 °F 37.4 °F 58% 29.94 in 10.0 mi South 15.0 mph 23.0 mph N/A   Clear
7:35 AM 51.8 °F 37.4 °F 58% 29.94 in 10.0 mi South 11.5 mph 21.9 mph N/A   Clear
7:55 AM 51.8 °F 39.2 °F 62% 29.95 in 10.0 mi South 16.1 mph 19.6 mph N/A   Clear
8:15 AM 53.6 °F 41.0 °F 62% 29.95 in 10.0 mi South 16.1 mph 21.9 mph N/A   Clear
8:35 AM 53.6 °F 41.0 °F 62% 29.95 in 10.0 mi South 17.3 mph 23.0 mph N/A   Clear
8:55 AM 55.4 °F 41.0 °F 58% 29.95 in 10.0 mi South 15.0 mph 24.2 mph N/A   Clear
9:15 AM 57.2 °F 42.8 °F 59% 29.94 in 10.0 mi South 19.6 mph 26.5 mph N/A   Clear
9:35 AM 59.0 °F 42.8 °F 55% 29.94 in 10.0 mi South 18.4 mph 29.9 mph N/A   Clear
9:55 AM 60.8 °F 44.6 °F 55% 29.93 in 10.0 mi South 19.6 mph 27.6 mph N/A   Clear
10:15 AM 62.6 °F 44.6 °F 52% 29.93 in 10.0 mi South 21.9 mph 32.2 mph N/A   Clear
10:55 AM 68.0 °F 50.0 °F 52% 29.92 in 10.0 mi South 23.0 mph 31.1 mph N/A   Clear
11:15 AM 68.0 °F 50.0 °F 52% 29.92 in 10.0 mi South 20.7 mph 29.9 mph N/A   Clear
11:35 AM 69.8 °F 50.0 °F 49% 29.91 in 10.0 mi SSW 16.1 mph 25.3 mph N/A   Clear
11:55 AM 71.6 °F 51.8 °F 50% 29.90 in 10.0 mi South 19.6 mph 25.3 mph N/A   Clear
12:15 PM 71.6 °F 51.8 °F 50% 29.90 in 10.0 mi South 19.6 mph 28.8 mph N/A   Clear
12:35 PM 71.6 °F 51.8 °F 50% 29.89 in 10.0 mi South 21.9 mph 29.9 mph N/A   Clear
1:15 PM 73.4 °F 50.0 °F 44% 29.87 in 10.0 mi South 20.7 mph 26.5 mph N/A   Clear
1:35 PM 77.0 °F 50.0 °F 39% 29.86 in 10.0 mi South 18.4 mph 24.2 mph N/A   Clear
1:55 PM 77.0 °F 50.0 °F 39% 29.85 in 10.0 mi South 19.6 mph 26.5 mph N/A   Clear
2:15 PM 77.0 °F 50.0 °F 39% 29.84 in 10.0 mi South 17.3 mph 29.9 mph N/A   Clear
2:35 PM 77.0 °F 50.0 °F 39% 29.84 in 10.0 mi South 19.6 mph 27.6 mph N/A   Clear
2:55 PM 78.8 °F 50.0 °F 36% 29.84 in 10.0 mi South 21.9 mph 31.1 mph N/A   Clear
3:15 PM 78.8 °F 50.0 °F 36% 29.83 in 10.0 mi South 18.4 mph 27.6 mph N/A   Clear
3:35 PM 77.0 °F 50.0 °F 39% 29.83 in 10.0 mi South 18.4 mph 31.1 mph N/A   Clear
3:55 PM 77.0 °F 51.8 °F 41% 29.83 in 10.0 mi South 18.4 mph 23.0 mph N/A   Clear
4:15 PM 77.0 °F 51.8 °F 41% 29.84 in 10.0 mi South 16.1 mph 24.2 mph N/A   Clear
4:35 PM 77.0 °F 51.8 °F 41% 29.84 in 10.0 mi South 11.5 mph - N/A   Clear
4:55 PM 77.0 °F 51.8 °F 41% 29.84 in 10.0 mi South 13.8 mph 18.4 mph N/A   Clear
5:15 PM 77.0 °F 53.6 °F 44% 29.83 in 10.0 mi South 12.7 mph 17.3 mph N/A   Clear
5:35 PM 75.2 °F 53.6 °F 47% 29.82 in 10.0 mi South 11.5 mph 18.4 mph N/A   Clear
5:55 PM 73.4 °F 53.6 °F 50% 29.82 in 10.0 mi SSE 11.5 mph - N/A   Clear
6:15 PM 73.4 °F 53.6 °F 50% 29.82 in 10.0 mi SSE 10.4 mph - N/A   Clear
6:35 PM 71.6 °F 53.6 °F 53% 29.82 in 10.0 mi SSE 10.4 mph - N/A   Clear
6:55 PM 71.6 °F 53.6 °F 53% 29.82 in 10.0 mi South 10.4 mph - N/A   Clear
7:15 PM 71.6 °F 53.6 °F 53% 29.83 in 10.0 mi South 16.1 mph - N/A   Clear
7:35 PM 71.6 °F 53.6 °F 53% 29.84 in 10.0 mi South 12.7 mph 19.6 mph N/A   Clear
7:55 PM 71.6 °F 53.6 °F 53% 29.84 in 10.0 mi South 13.8 mph - N/A   Clear
8:15 PM 69.8 °F 53.6 °F 56% 29.84 in 10.0 mi South 16.1 mph - N/A   Clear
8:35 PM 69.8 °F 53.6 °F 56% 29.84 in 10.0 mi South 15.0 mph - N/A   Clear
8:55 PM 69.8 °F 53.6 °F 56% 29.84 in 10.0 mi South 13.8 mph - N/A   Clear
9:15 PM 69.8 °F 53.6 °F 56% 29.84 in 10.0 mi South 13.8 mph - N/A   Clear
9:35 PM 69.8 °F 53.6 °F 56% 29.84 in 10.0 mi South 15.0 mph 20.7 mph N/A   Clear
9:55 PM 68.0 °F 53.6 °F 60% 29.84 in 10.0 mi South 12.7 mph 20.7 mph N/A   Clear
10:15 PM 68.0 °F 53.6 °F 60% 29.84 in 10.0 mi South 15.0 mph - N/A   Clear
10:35 PM 68.0 °F 51.8 °F 56% 29.85 in 10.0 mi South 15.0 mph - N/A   Clear
10:55 PM 68.0 °F 51.8 °F 56% 29.85 in 10.0 mi South 13.8 mph 18.4 mph N/A   Clear
11:15 PM 68.0 °F 51.8 °F 56% 29.85 in 10.0 mi South 13.8 mph 19.6 mph N/A   Clear
11:35 PM 68.0 °F 51.8 °F 56% 29.85 in 10.0 mi South 13.8 mph 19.6 mph N/A   Clear
11:55 PM 68.0 °F 53.6 °F 60% 29.86 in 10.0 mi South 12.7 mph 18.4 mph N/A   Clear